1506232800.56,4959,13.56,73856.8,0.37,-0.15,-0.11,0,*7C
1506232801.76,4960,13.56,73856.0,0.37,-0.15,-0.11,0,*76
1506232802.92,4961,13.56,73852.5,0.39,-0.07,-0.07,0,*7D
1506232804.09,4962,13.56,73856.3,0.39,-0.11,-0.11,0,*7E
1506232805.29,4963,13.56,73856.3,0.37,-0.11,-0.15,0,*75
1506232806.48,4964,13.56,73852.3,0.37,-0.15,-0.11,0,*72
1506232807.65,4965,13.56,73850.3,0.39,-0.07,-0.11,0,*4E
1506232808.85,4966,13.56,73852.3,0.37,-0.11,-0.15,0,*70
1506232810.05,4967,13.56,73854.3,0.37,-0.11,-0.11,0,*75
1506232811.2,4968,13.56,73856.0,0.39,-0.07,-0.07,0,*74
1506232812.38,4969,13.56,73854.0,0.39,-0.11,-0.11,0,*75
1506232813.57,4970,13.56,73856.5,0.37,-0.15,-0.15,0,*73
1506232814.75,4971,13.56,73854.0,0.39,-0.11,-0.11,0,*7C
1506232815.94,4972,13.56,73854.5,0.37,-0.15,-0.11,0,*75
1506232817.1,4973,13.56,73854.8,0.39,-0.07,-0.07,0,*7E
1506232818.3,4974,13.56,73854.5,0.37,-0.11,-0.11,0,*77
1506232819.5,4975,13.56,73852.0,0.37,-0.11,-0.11,0,*76
1506232820.67,4976,13.56,73856.8,0.39,-0.11,-0.11,0,*7B
1506232821.85,4977,13.56,73854.8,0.39,-0.11,-0.11,0,*7A
1506232823.02,4978,13.56,73852.5,0.39,-0.11,-0.11,0,*75
1506232824.24,4979,13.56,73852.3,0.37,-0.23,-0.15,0,*7F
1506232825.42,4980,13.56,73852.5,0.39,-0.11,-0.11,0,*72
1506232826.61,4981,13.56,73854.8,0.37,-0.11,-0.11,0,*7D
1506232827.81,4982,13.56,73854.0,0.37,-0.15,-0.15,0,*7E
1506232829.01,4983,13.56,73852.8,0.37,-0.11,-0.15,0,*7B
1506232830.2,4984,13.56,73852.0,0.37,-0.15,-0.15,0,*78
1506232831.37,4985,13.56,73852.0,0.39,-0.11,-0.11,0,*77
1506232832.55,4986,13.56,73852.3,0.39,-0.11,-0.11,0,*74
1506232833.73,4987,13.56,73854.3,0.39,-0.11,-0.11,0,*75
1506232834.92,4988,13.56,73854.8,0.37,-0.11,-0.15,0,*70
1506232836.12,4989,13.56,73848.8,0.37,-0.15,-0.15,0,*75
1506232837.29,4990,13.56,73854.5,0.39,-0.11,-0.11,0,*73
1506232838.49,4991,13.56,73852.3,0.37,-0.15,-0.15,0,*7C
1506232839.65,4992,13.56,73854.5,0.39,-0.11,-0.07,0,*46
1506232840.82,4993,13.56,73852.3,0.39,-0.07,-0.11,0,*47
1506232841.99,4994,13.56,73858.0,0.39,-0.11,-0.11,0,*77
1506232843.16,4995,13.56,73852.0,0.39,-0.07,-0.11,0,*41
1506232844.35,4996,13.56,73854.0,0.37,-0.15,-0.11,0,*7F
1506232845.53,4997,13.56,73854.8,0.39,-0.11,-0.11,0,*74
1506232846.71,4998,13.56,73850.8,0.39,-0.11,-0.11,0,*7B
1506232847.88,4999,13.56,73852.8,0.39,-0.11,-0.11,0,*7A
1506232849.06,5000,13.56,73852.8,0.39,-0.11,-0.11,0,*72
1506232850.22,5001,13.56,73852.0,0.39,-0.07,-0.11,0,*44
1506232851.39,5002,13.56,73852.3,0.39,-0.07,-0.11,0,*47
1506232852.55,5003,13.56,73854.0,0.39,-0.11,-0.07,0,*46
1506232853.72,5004,13.56,73854.3,0.39,-0.11,-0.07,0,*41
1506232854.89,5005,13.56,73856.3,0.39,-0.11,-0.07,0,*40
1506232856.08,5006,13.56,73854.0,0.37,-0.11,-0.15,0,*7E
1506232857.25,5007,13.56,73852.5,0.39,-0.11,-0.07,0,*42
1506232858.42,5008,13.56,73856.0,0.39,-0.07,-0.11,0,*4D
1506232859.63,5009,13.56,73852.5,0.37,-0.15,-0.23,0,*70
1506232860.8,5010,13.56,73852.5,0.39,-0.11,-0.11,0,*73
1506232861.98,5011,13.56,73856.0,0.39,-0.11,-0.11,0,*72
1506232863.16,5012,13.56,73854.5,0.39,-0.11,-0.11,0,*71
1506232864.33,5013,13.56,73854.0,0.39,-0.11,-0.11,0,*70
1506232865.49,5014,13.56,73854.3,0.39,-0.07,-0.07,0,*77
1506232866.66,5015,13.56,73854.8,0.39,-0.11,-0.11,0,*76
1506232867.83,5016,13.56,73854.3,0.39,-0.11,-0.07,0,*42
1506232869.0,5017,13.56,73848.3,0.39,-0.07,-0.11,0,*43
1506232870.17,5018,13.56,73854.0,0.39,-0.11,-0.11,0,*7B
1506232871.36,5019,13.56,73850.8,0.37,-0.07,-0.11,0,*43
1506232872.53,5020,13.56,73854.5,0.39,-0.07,-0.11,0,*47
1506232873.69,5021,13.56,73852.3,0.39,-0.11,-0.07,0,*46
1506232874.87,5022,13.56,73854.8,0.39,-0.11,-0.11,0,*72
1506232876.04,5023,13.56,73854.0,0.39,-0.11,-0.11,0,*73
1506232877.26,5024,13.56,73850.3,0.37,-0.15,-0.23,0,*7F
1506232878.43,5025,13.56,73848.5,0.39,-0.11,-0.11,0,*75
1506232879.61,5026,13.56,73852.8,0.39,-0.11,-0.11,0,*76
1506232880.78,5027,13.56,73848.3,0.39,-0.11,-0.19,0,*7F
1506232881.94,5028,13.56,73850.3,0.39,-0.07,-0.19,0,*47
1506232883.11,5029,13.56,73852.0,0.39,-0.11,-0.19,0,*71
1506232884.28,5030,13.56,73854.8,0.39,-0.07,-0.11,0,*46
1506232885.49,5031,13.56,73854.3,0.37,-0.11,-0.23,0,*7F
1506232886.66,5032,13.56,73854.0,0.39,-0.07,-0.19,0,*4C
1506232887.83,5033,13.56,73852.5,0.39,-0.07,-0.11,0,*45
1506232888.99,5034,13.56,73854.0,0.39,-0.07,-0.11,0,*42
1506232890.19,5035,13.56,73854.5,0.37,-0.11,-0.15,0,*7E
1506232891.36,5036,13.56,73854.0,0.39,-0.07,-0.11,0,*40
1506232892.57,5037,13.56,73852.3,0.37,-0.23,-0.15,0,*7D
1506232893.75,5038,13.56,73846.8,0.39,-0.11,-0.11,0,*79
1506232894.92,5039,13.56,73852.8,0.39,-0.11,-0.11,0,*78
1506232896.1,5040,13.56,73854.0,0.39,-0.11,-0.11,0,*76
1506232897.27,5041,13.56,73852.8,0.39,-0.19,-0.11,0,*7F
1506232898.44,5042,13.56,73854.0,0.39,-0.07,-0.11,0,*43
1506232899.61,5043,13.56,73852.0,0.39,-0.11,-0.11,0,*75
1506232900.79,5044,13.56,73848.8,0.39,-0.11,-0.11,0,*72
1506232901.98,5045,13.56,73852.5,0.37,-0.15,-0.11,0,*79
1506232903.16,5046,13.56,73854.3,0.39,-0.11,-0.11,0,*70
1506232904.33,5047,13.56,73850.8,0.39,-0.11,-0.07,0,*46
1506232905.52,5048,13.56,73850.8,0.37,-0.15,-0.11,0,*74
1506232906.7,5049,13.56,73848.8,0.39,-0.11,-0.11,0,*7F
1506232907.87,5050,13.56,73856.5,0.39,-0.19,-0.11,0,*7F
1506232909.04,5051,13.56,73848.5,0.39,-0.11,-0.19,0,*7E
1506232910.24,5052,13.56,73850.8,0.39,-0.11,-0.23,0,*74
1506232911.41,5053,13.56,73852.0,0.39,-0.11,-0.11,0,*74
1506232912.57,5054,13.56,73852.0,0.39,-0.07,-0.07,0,*73
1506232913.73,5055,13.56,73848.5,0.39,-0.07,-0.11,0,*45
1506232914.9,5056,13.56,73850.5,0.39,-0.11,-0.07,0,*46
1506232916.08,5057,13.56,73854.0,0.39,-0.11,-0.11,0,*70
1506232917.27,5058,13.56,73854.0,0.37,-0.15,-0.15,0,*71
1506232918.47,5059,13.56,73852.5,0.37,-0.11,-0.15,0,*74
1506232919.64,5060,13.56,73852.8,0.39,-0.11,-0.19,0,*7C
1506232920.85,5061,13.56,73854.8,0.37,-0.23,-0.19,0,*72
1506232922.03,5062,13.56,73850.0,0.39,-0.11,-0.19,0,*7E
1506232923.2,5063,13.56,73854.5,0.39,-0.19,-0.19,0,*77
1506232924.37,5064,13.56,73852.8,0.39,-0.19,-0.19,0,*70
1506232925.56,5065,13.56,73852.5,0.41,-0.07,-0.15,0,*4D
1506232926.73,5066,13.56,73852.8,0.39,-0.11,-0.19,0,*7A
1506232927.9,5067,13.56,73852.5,0.39,-0.19,-0.11,0,*7B
1506232929.08,5068,13.56,73850.8,0.39,-0.11,-0.11,0,*7C
1506232930.27,5069,13.56,73848.3,0.37,-0.15,-0.15,0,*73
1506232931.49,5070,13.56,73848.5,0.37,-0.23,-0.19,0,*72
1506232932.68,5071,13.56,73854.5,0.39,-0.23,-0.19,0,*7D
1506232933.85,5072,13.56,73850.8,0.39,-0.19,-0.11,0,*7F
1506232935.05,5073,13.56,73852.0,0.37,-0.15,-0.15,0,*78
1506232936.22,5074,13.56,73852.5,0.39,-0.19,-0.11,0,*79
1506232937.4,5075,13.56,73856.3,0.39,-0.11,-0.11,0,*70
1506232938.58,5076,13.56,73854.5,0.41,-0.15,-0.07,0,*4F
1506232939.75,5077,13.56,73854.0,0.39,-0.07,-0.11,0,*45
1506232940.94,5078,13.56,73858.5,0.39,-0.23,-0.19,0,*74
1506232942.18,5079,13.56,73852.3,0.37,-0.23,-0.23,0,*72
1506232943.35,5080,13.56,73854.3,0.39,-0.19,-0.19,0,*7A
1506232944.52,5081,13.56,73852.5,0.39,-0.19,-0.11,0,*73
1506232945.76,5082,13.56,73854.5,0.37,-0.23,-0.23,0,*76
1506232946.93,5083,13.56,73848.8,0.39,-0.11,-0.19,0,*71
1506232948.1,5084,13.56,73848.5,0.39,-0.19,-0.19,0,*7E
1506232949.34,5085,13.56,73854.5,0.37,-0.23,-0.23,0,*71
1506232950.51,5086,13.56,73852.8,0.39,-0.11,-0.19,0,*74
1506232951.68,5087,13.56,73854.3,0.39,-0.11,-0.19,0,*75
1506232952.85,5088,13.56,73852.8,0.39,-0.11,-0.19,0,*7A
1506232954.03,5089,13.56,73854.3,0.39,-0.11,-0.19,0,*7B
1506232955.2,5090,13.56,73854.8,0.39,-0.19,-0.19,0,*7B
1506232956.37,5091,13.56,73854.5,0.39,-0.19,-0.19,0,*7A
1506232957.54,5092,13.56,73856.0,0.39,-0.19,-0.19,0,*79
1506232958.71,5093,13.56,73856.3,0.39,-0.19,-0.19,0,*78
1506232959.88,5094,13.56,73852.5,0.39,-0.19,-0.19,0,*7F
1506232961.06,5095,13.56,73852.8,0.39,-0.19,-0.19,0,*7E
1506232962.25,5096,13.56,73854.5,0.39,-0.23,-0.19,0,*74
1506232963.42,5097,13.56,73854.5,0.39,-0.19,-0.19,0,*7C
1506232964.59,5098,13.56,73852.3,0.39,-0.19,-0.19,0,*73
1506232965.78,5099,13.56,73854.8,0.39,-0.11,-0.23,0,*73
1506232967.0,5100,13.56,73848.5,0.37,-0.15,-0.27,0,*7C
1506232968.17,5101,13.56,73852.5,0.39,-0.19,-0.11,0,*7A
1506232969.34,5102,13.56,73852.0,0.39,-0.19,-0.19,0,*71
1506232970.51,5103,13.56,73854.5,0.39,-0.19,-0.19,0,*70
1506232971.71,5104,13.56,73856.8,0.41,-0.19,-0.19,0,*78
1506232972.88,5105,13.56,73856.0,0.39,-0.19,-0.19,0,*76
1506232974.07,5106,13.56,73854.3,0.39,-0.19,-0.23,0,*7C
1506232975.24,5107,13.56,73856.8,0.39,-0.19,-0.11,0,*7C
1506232976.46,5108,13.56,73854.5,0.39,-0.23,-0.23,0,*7B
1506232977.63,5109,13.56,73854.3,0.39,-0.19,-0.19,0,*7A
1506232978.8,5110,13.56,73852.8,0.39,-0.19,-0.19,0,*72
1506232979.97,5111,13.56,73854.5,0.39,-0.19,-0.19,0,*73
1506232981.14,5112,13.56,73852.3,0.39,-0.19,-0.19,0,*70
1506232982.38,5113,13.56,73848.5,0.37,-0.23,-0.23,0,*7F
1506232983.55,5114,13.56,73854.0,0.39,-0.11,-0.19,0,*7E
1506232984.74,5115,13.56,73852.5,0.39,-0.11,-0.23,0,*76
1506232985.92,5116,13.56,73850.5,0.39,-0.19,-0.19,0,*74
1506232987.11,5117,13.56,73854.0,0.39,-0.19,-0.23,0,*7C
1506232988.3,5118,13.56,73854.3,0.39,-0.19,-0.23,0,*73
1506232989.47,5119,13.56,73854.5,0.39,-0.19,-0.19,0,*7B
1506232990.64,5120,13.56,73850.3,0.39,-0.19,-0.19,0,*71
1506232991.82,5121,13.56,73852.3,0.39,-0.19,-0.19,0,*70
1506232992.99,5122,13.56,73852.5,0.39,-0.19,-0.19,0,*73
1506232994.18,5123,13.56,73850.5,0.39,-0.19,-0.23,0,*7B
1506232995.37,5124,13.56,73854.3,0.39,-0.19,-0.23,0,*7C
1506232996.56,5125,13.56,73852.0,0.39,-0.23,-0.19,0,*7D
1506232997.76,5126,13.56,73854.0,0.39,-0.23,-0.19,0,*7E
1506232998.97,5127,13.56,73858.3,0.39,-0.23,-0.23,0,*76
1506233000.16,5128,13.56,73858.3,0.39,-0.23,-0.19,0,*70
1506233001.36,5129,13.56,73850.5,0.39,-0.23,-0.19,0,*71
1506233002.57,5130,13.56,73854.5,0.39,-0.23,-0.23,0,*70
1506233003.76,5131,13.56,73854.5,0.39,-0.23,-0.19,0,*78
1506233004.93,5132,13.56,73850.5,0.39,-0.19,-0.19,0,*72
1506233006.17,5133,13.56,73852.0,0.37,-0.27,-0.23,0,*79
1506233007.36,5134,13.56,73854.5,0.39,-0.19,-0.23,0,*7D
1506233008.54,5135,13.56,73852.3,0.39,-0.19,-0.19,0,*75
1506233009.75,5136,13.56,73852.5,0.39,-0.23,-0.23,0,*76
1506233010.96,5137,13.56,73854.3,0.39,-0.23,-0.23,0,*77
1506233012.15,5138,13.56,73854.5,0.41,-0.15,-0.15,0,*77
1506233013.34,5139,13.56,73852.5,0.41,-0.07,-0.15,0,*45
1506233014.53,5140,13.56,73852.0,0.41,-0.15,-0.15,0,*78
1506233015.72,5141,13.56,73858.5,0.39,-0.23,-0.19,0,*7F
1506233016.91,5142,13.56,73856.8,0.39,-0.23,-0.29,0,*7F
1506233018.12,5143,13.56,73854.5,0.39,-0.23,-0.23,0,*74
1506233019.33,5144,13.56,73852.5,0.39,-0.23,-0.23,0,*73
1506233020.53,5145,13.56,73856.0,0.39,-0.19,-0.23,0,*7B
1506233021.74,5146,13.56,73858.5,0.39,-0.23,-0.23,0,*71
1506233022.93,5147,13.56,73850.8,0.41,-0.19,-0.19,0,*7F
1506233024.13,5148,13.56,73854.5,0.41,-0.19,-0.15,0,*7C
1506233025.32,5149,13.56,73858.0,0.39,-0.23,-0.19,0,*77
1506233026.51,5150,13.56,73854.3,0.39,-0.23,-0.19,0,*7F
1506233027.7,5151,13.56,73852.8,0.39,-0.23,-0.19,0,*7E
1506233028.94,5152,13.56,73854.8,0.37,-0.23,-0.23,0,*7A
1506233030.13,5153,13.56,73854.5,0.39,-0.19,-0.23,0,*7C
1506233031.3,5154,13.56,73856.3,0.39,-0.19,-0.19,0,*72
1506233032.5,5155,13.56,73858.0,0.39,-0.23,-0.19,0,*7A
1506233033.69,5156,13.56,73856.5,0.39,-0.19,-0.23,0,*79
1506233034.86,5157,13.56,73856.0,0.39,-0.19,-0.19,0,*71
1506233036.05,5158,13.56,73854.5,0.39,-0.23,-0.19,0,*77
1506233037.25,5159,13.56,73852.5,0.39,-0.19,-0.23,0,*76
1506233038.44,5160,13.56,73854.5,0.39,-0.19,-0.23,0,*7C
1506233039.63,5161,13.56,73852.0,0.39,-0.19,-0.23,0,*7D
1506233040.84,5162,13.56,73852.5,0.39,-0.23,-0.23,0,*77
1506233042.04,5163,13.56,73854.8,0.39,-0.23,-0.19,0,*7F
1506233043.23,5164,13.56,73858.5,0.41,-0.15,-0.15,0,*7E
1506233044.42,5165,13.56,73858.0,0.39,-0.23,-0.19,0,*79
1506233045.61,5166,13.56,73854.3,0.39,-0.19,-0.23,0,*7A
1506233046.83,5167,13.56,73852.3,0.39,-0.23,-0.23,0,*72
1506233047.99,5168,13.56,73856.3,0.43,-0.15,-0.19,0,*7C
1506233049.18,5169,13.56,73858.3,0.41,-0.15,-0.19,0,*7F
1506233050.37,5170,13.56,73852.5,0.41,-0.15,-0.19,0,*77
1506233051.56,5171,13.56,73854.8,0.41,-0.19,-0.19,0,*7A
1506233052.75,5172,13.56,73852.0,0.41,-0.15,-0.19,0,*75
1506233053.93,5173,13.56,73854.0,0.41,-0.15,-0.19,0,*74
1506233055.13,5174,13.56,73850.8,0.41,-0.19,-0.15,0,*73
1506233056.32,5175,13.56,73852.5,0.41,-0.19,-0.19,0,*7E
1506233057.51,5176,13.56,73852.8,0.41,-0.15,-0.15,0,*7D
1506233058.7,5177,13.56,73854.0,0.41,-0.19,-0.19,0,*7C
1506233059.89,5178,13.56,73854.0,0.41,-0.19,-0.19,0,*73
1506233061.11,5179,13.56,73854.3,0.39,-0.23,-0.23,0,*7D
1506233062.32,5180,13.56,73858.0,0.39,-0.23,-0.23,0,*7B
1506233063.51,5181,13.56,73854.8,0.39,-0.19,-0.23,0,*73
1506233064.7,5182,13.56,73858.3,0.41,-0.15,-0.19,0,*7A
1506233065.89,5183,13.56,73852.5,0.41,-0.19,-0.19,0,*77
1506233067.08,5184,13.56,73852.3,0.41,-0.19,-0.19,0,*70
1506233068.28,5185,13.56,73852.0,0.41,-0.19,-0.19,0,*71
1506233069.47,5186,13.56,73854.3,0.41,-0.19,-0.19,0,*72
1506233070.66,5187,13.56,73856.3,0.41,-0.19,-0.19,0,*73
1506233071.85,5188,13.56,73860.5,0.41,-0.19,-0.15,0,*70
1506233073.04,5189,13.56,73856.3,0.41,-0.15,-0.15,0,*7D
1506233074.23,5190,13.56,73856.5,0.41,-0.19,-0.19,0,*75
1506233075.43,5191,13.56,73856.0,0.41,-0.19,-0.19,0,*74
1506233076.62,5192,13.56,73852.3,0.41,-0.19,-0.19,0,*77
1506233077.81,5193,13.56,73854.3,0.41,-0.19,-0.19,0,*76
1506233079.02,5194,13.56,73852.8,0.41,-0.19,-0.27,0,*7C
1506233080.21,5195,13.56,73854.5,0.41,-0.19,-0.19,0,*70
1506233081.45,5196,13.56,73856.0,0.41,-0.27,-0.27,0,*73
1506233082.66,5197,13.56,73854.0,0.41,-0.27,-0.19,0,*7F
1506233083.85,5198,13.56,73854.3,0.41,-0.19,-0.19,0,*7D
1506233085.04,5199,13.56,73856.3,0.41,-0.19,-0.19,0,*7C
1506233086.23,5200,13.56,73856.8,0.41,-0.19,-0.19,0,*7F
1506233087.43,5201,13.56,73856.8,0.39,-0.23,-0.19,0,*78
1506233088.61,5202,13.56,73854.8,0.41,-0.15,-0.19,0,*71
1506233089.83,5203,13.56,73856.3,0.41,-0.15,-0.27,0,*7D
1506233091.04,5204,13.56,73856.0,0.41,-0.19,-0.27,0,*76
1506233092.23,5205,13.56,73852.5,0.43,-0.19,-0.27,0,*75
1506233093.46,5206,13.56,73854.3,0.41,-0.27,-0.27,0,*79
1506233094.69,5207,13.56,73854.3,0.41,-0.27,-0.27,0,*78
1506233095.91,5208,13.56,73854.8,0.41,-0.27,-0.19,0,*7A
1506233097.12,5209,13.56,73856.8,0.41,-0.19,-0.27,0,*7B
1506233098.31,5210,13.56,73858.5,0.41,-0.19,-0.19,0,*7E
1506233099.5,5211,13.56,73852.8,0.41,-0.19,-0.19,0,*7F
1506233100.72,5212,13.56,73854.5,0.41,-0.19,-0.27,0,*71
1506233101.91,5213,13.56,73858.3,0.41,-0.19,-0.19,0,*7D
1506233103.1,5214,13.56,73852.0,0.41,-0.19,-0.15,0,*76
1506233104.31,5215,13.56,73856.8,0.41,-0.27,-0.19,0,*76
1506233105.53,5216,13.56,73856.8,0.41,-0.27,-0.19,0,*75
1506233106.72,5217,13.56,73854.5,0.41,-0.19,-0.19,0,*79
1506233107.91,5218,13.56,73854.5,0.41,-0.19,-0.19,0,*76
1506233109.08,5219,13.56,73852.3,0.43,-0.19,-0.19,0,*75
1506233110.27,5220,13.56,73858.8,0.41,-0.19,-0.15,0,*71
1506233111.48,5221,13.56,73854.0,0.39,-0.23,-0.23,0,*73
1506233112.67,5222,13.56,73856.5,0.39,-0.29,-0.23,0,*7A
1506233113.86,5223,13.56,73854.8,0.43,-0.27,-0.19,0,*71
1506233115.05,5224,13.56,73854.8,0.41,-0.19,-0.15,0,*75
1506233116.27,5225,13.56,73858.3,0.41,-0.19,-0.27,0,*75
1506233117.45,5226,13.56,73856.5,0.41,-0.19,-0.29,0,*78
1506233118.67,5227,13.56,73860.3,0.41,-0.19,-0.27,0,*77
1506233119.88,5228,13.56,73854.8,0.41,-0.19,-0.27,0,*78
1506233121.07,5229,13.56,73852.8,0.43,-0.19,-0.27,0,*7B
1506233122.28,5230,13.56,73858.8,0.41,-0.27,-0.19,0,*71
1506233123.49,5231,13.56,73854.5,0.41,-0.19,-0.27,0,*70
1506233124.7,5232,13.56,73858.0,0.41,-0.19,-0.27,0,*73
1506233125.92,5233,13.56,73856.5,0.41,-0.27,-0.19,0,*72
1506233127.13,5234,13.56,73854.5,0.43,-0.27,-0.27,0,*7A
1506233128.36,5235,13.56,73852.8,0.41,-0.27,-0.27,0,*79
1506233129.57,5236,13.56,73856.0,0.41,-0.27,-0.29,0,*74
1506233130.78,5237,13.56,73858.0,0.41,-0.27,-0.19,0,*76
1506233131.97,5238,13.56,73856.8,0.43,-0.29,-0.27,0,*78
1506233133.17,5239,13.56,73854.5,0.41,-0.29,-0.27,0,*7B
1506233134.36,5240,13.56,73852.5,0.41,-0.15,-0.19,0,*77
1506233135.55,5241,13.56,73852.3,0.41,-0.19,-0.19,0,*7A
1506233136.77,5242,13.56,73854.0,0.41,-0.19,-0.27,0,*74
1506233137.97,5243,13.56,73856.5,0.41,-0.29,-0.27,0,*76
1506233139.21,5244,13.56,73858.5,0.41,-0.27,-0.27,0,*7F
1506233140.44,5245,13.56,73856.5,0.41,-0.27,-0.27,0,*7E
1506233141.65,5246,13.56,73856.8,0.41,-0.29,-0.27,0,*73
1506233142.84,5247,13.56,73854.8,0.43,-0.19,-0.27,0,*73
1506233144.05,5248,13.56,73856.8,0.41,-0.19,-0.27,0,*7E
1506233145.24,5249,13.56,73858.0,0.41,-0.29,-0.19,0,*71
1506233146.47,5250,13.56,73858.0,0.41,-0.27,-0.27,0,*7A
1506233147.65,5251,13.56,73858.3,0.43,-0.27,-0.29,0,*77
1506233148.89,5252,13.56,73856.3,0.41,-0.27,-0.27,0,*78
1506233150.12,5253,13.56,73856.5,0.41,-0.27,-0.27,0,*79
1506233151.36,5254,13.56,73858.3,0.41,-0.27,-0.27,0,*7E
1506233152.59,5255,13.56,73856.5,0.41,-0.27,-0.27,0,*7F
1506233153.75,5256,13.56,73856.0,0.43,-0.29,-0.29,0,*7E
1506233154.93,5257,13.56,73862.0,0.41,-0.29,-0.29,0,*7D
1506233156.11,5258,13.56,73860.5,0.41,-0.29,-0.29,0,*72
1506233157.31,5259,13.56,73856.0,0.41,-0.27,-0.29,0,*7D
1506233158.47,5260,13.56,73856.3,0.43,-0.29,-0.29,0,*7B
1506233159.68,5261,13.56,73858.0,0.41,-0.29,-0.27,0,*76
1506233160.91,5262,13.56,73852.5,0.41,-0.27,-0.27,0,*7B
1506233162.12,5263,13.56,73856.5,0.41,-0.27,-0.29,0,*74
1506233163.32,5264,13.56,73858.0,0.41,-0.29,-0.27,0,*73
1506233164.56,5265,13.56,73856.8,0.41,-0.27,-0.27,0,*7C
1506233165.76,5266,13.56,73858.0,0.41,-0.27,-0.29,0,*71
1506233167.0,5267,13.56,73856.8,0.41,-0.27,-0.27,0,*7E
1506233168.21,5268,13.56,73856.8,0.41,-0.29,-0.27,0,*7F
1506233169.39,5269,13.56,73856.5,0.43,-0.27,-0.29,0,*7C
1506233170.57,5270,13.56,73856.3,0.43,-0.29,-0.27,0,*74
1506233171.81,5271,13.56,73858.3,0.41,-0.27,-0.27,0,*79
1506233172.99,5272,13.56,73858.5,0.41,-0.29,-0.29,0,*7A
1506233174.17,5273,13.56,73858.3,0.41,-0.29,-0.29,0,*7B
1506233175.37,5274,13.56,73856.8,0.41,-0.27,-0.29,0,*72
1506233176.53,5275,13.56,73856.3,0.43,-0.29,-0.29,0,*7F
1506233177.71,5276,13.56,73858.3,0.43,-0.27,-0.29,0,*72
1506233178.9,5277,13.56,73858.3,0.43,-0.29,-0.27,0,*73
1506233180.1,5278,13.56,73860.0,0.41,-0.27,-0.29,0,*7E
1506233181.34,5279,13.56,73856.5,0.41,-0.27,-0.27,0,*71
1506233182.52,5280,13.56,73854.0,0.41,-0.29,-0.29,0,*77
1506233183.73,5281,13.56,73858.0,0.41,-0.27,-0.29,0,*78
1506233184.9,5282,13.56,73858.0,0.41,-0.29,-0.29,0,*75
1506233186.06,5283,13.56,73856.0,0.43,-0.29,-0.29,0,*76
1506233187.24,5284,13.56,73852.3,0.41,-0.29,-0.29,0,*73
1506233188.4,5285,13.56,73856.3,0.43,-0.29,-0.29,0,*70
1506233189.55,5286,13.56,73852.8,0.43,-0.29,-0.29,0,*73
1506233190.73,5287,13.56,73856.3,0.41,-0.29,-0.29,0,*70
1506233191.92,5288,13.56,73856.5,0.43,-0.29,-0.27,0,*73
1506233193.07,5289,13.56,73858.0,0.43,-0.29,-0.29,0,*7C
1506233194.23,5290,13.56,73856.8,0.43,-0.29,-0.29,0,*74
1506233195.41,5291,13.56,73858.5,0.41,-0.29,-0.29,0,*77
1506233196.56,5292,13.56,73856.8,0.43,-0.29,-0.29,0,*76
1506233197.75,5293,13.56,73866.0,0.43,-0.27,-0.29,0,*79
1506233198.9,5294,13.56,73860.3,0.43,-0.29,-0.29,0,*70
1506233200.08,5295,13.56,73858.3,0.41,-0.29,-0.29,0,*73
1506233201.24,5296,13.56,73858.5,0.43,-0.29,-0.29,0,*72
1506233202.42,5297,13.56,73858.3,0.43,-0.27,-0.29,0,*7D
1506233203.58,5298,13.56,73856.0,0.43,-0.29,-0.29,0,*7C
1506233204.76,5299,13.56,73862.0,0.41,-0.29,-0.29,0,*7F
1506233205.92,5300,13.56,73860.3,0.43,-0.29,-0.29,0,*7C
1506233207.07,5301,13.56,73858.5,0.43,-0.29,-0.29,0,*7D
1506233208.23,5302,13.56,73858.5,0.43,-0.29,-0.29,0,*7E
1506233209.41,5303,13.56,73860.8,0.41,-0.29,-0.29,0,*7D
1506233210.58,5304,13.56,73858.5,0.43,-0.29,-0.41,0,*76
1506233211.74,5305,13.56,73858.5,0.43,-0.29,-0.33,0,*72
1506233212.9,5306,13.56,73858.5,0.43,-0.29,-0.33,0,*71
1506233214.06,5307,13.56,73862.3,0.43,-0.33,-0.33,0,*7B
1506233215.25,5308,13.56,73862.3,0.41,-0.33,-0.33,0,*76
1506233216.43,5309,13.56,73858.3,0.41,-0.33,-0.33,0,*77
1506233217.62,5310,13.56,73858.3,0.41,-0.33,-0.33,0,*7F
1506233218.78,5311,13.56,73860.0,0.43,-0.33,-0.33,0,*7C
1506233219.95,5312,13.56,73858.0,0.43,-0.33,-0.33,0,*7F
1506233221.13,5313,13.56,73858.5,0.41,-0.33,-0.33,0,*7C
1506233222.3,5314,13.56,73858.0,0.43,-0.33,-0.33,0,*79
1506233223.48,5315,13.56,73856.8,0.41,-0.33,-0.33,0,*7A
1506233224.64,5316,13.56,73858.0,0.43,-0.33,-0.33,0,*7B
1506233225.81,5317,13.56,73858.3,0.43,-0.33,-0.33,0,*7A
1506233226.97,5318,13.56,73856.3,0.43,-0.33,-0.33,0,*75
1506233228.16,5319,13.56,73856.0,0.41,-0.33,-0.33,0,*76
1506233229.34,5320,13.56,73860.5,0.41,-0.33,-0.33,0,*7C
1506233230.53,5321,13.56,73856.5,0.41,-0.29,-0.33,0,*76
1506233231.69,5322,13.56,73858.3,0.43,-0.33,-0.33,0,*7C
1506233232.88,5323,13.56,73856.3,0.41,-0.33,-0.33,0,*7F
1506233234.05,5324,13.56,73856.8,0.43,-0.41,-0.41,0,*7A
1506233235.24,5325,13.56,73858.8,0.41,-0.29,-0.33,0,*72
1506233236.4,5326,13.56,73862.0,0.43,-0.29,-0.33,0,*73
1506233237.59,5327,13.56,73860.3,0.41,-0.33,-0.33,0,*7B
1506233238.76,5328,13.56,73858.3,0.43,-0.41,-0.33,0,*73
1506233239.92,5329,13.56,73856.0,0.43,-0.33,-0.33,0,*77
1506233241.1,5330,13.56,73858.5,0.41,-0.33,-0.33,0,*7D
1506233242.29,5331,13.56,73858.8,0.41,-0.33,-0.33,0,*7C
1506233243.48,5332,13.56,73862.5,0.41,-0.41,-0.33,0,*7A
1506233244.68,5333,13.56,73856.5,0.41,-0.41,-0.33,0,*7B
1506233245.84,5334,13.56,73858.5,0.43,-0.33,-0.33,0,*7B
1506233247.0,5335,13.56,73858.3,0.43,-0.33,-0.33,0,*7A
1506233248.19,5336,13.56,73854.5,0.41,-0.33,-0.33,0,*7B
1506233249.35,5337,13.56,73860.0,0.43,-0.33,-0.33,0,*78
1506233250.55,5338,13.56,73860.8,0.41,-0.41,-0.41,0,*75
1506233251.72,5339,13.56,73858.5,0.43,-0.33,-0.41,0,*73
1506233252.9,5340,13.56,73856.3,0.41,-0.33,-0.33,0,*7A
1506233254.07,5341,13.56,73858.3,0.43,-0.33,-0.33,0,*79
1506233255.26,5342,13.56,73854.3,0.41,-0.33,-0.41,0,*7D
1506233256.44,5343,13.56,73856.3,0.41,-0.33,-0.33,0,*79
1506233257.6,5344,13.56,73858.0,0.43,-0.33,-0.33,0,*7C
1506233258.79,5345,13.56,73856.8,0.41,-0.33,-0.33,0,*7F
1506233259.98,5346,13.56,73858.8,0.41,-0.33,-0.33,0,*7C
1506233261.14,5347,13.56,73858.8,0.43,-0.33,-0.33,0,*7F
1506233262.33,5348,13.56,73858.8,0.41,-0.33,-0.41,0,*77
1506233263.5,5349,13.56,73860.8,0.43,-0.41,-0.33,0,*74
1506233264.67,5350,13.56,73858.3,0.43,-0.41,-0.33,0,*7C
1506233265.84,5351,13.56,73860.8,0.43,-0.33,-0.41,0,*7D
1506233267.03,5352,13.56,73862.5,0.41,-0.33,-0.41,0,*7C
1506233268.22,5353,13.56,73856.5,0.41,-0.33,-0.41,0,*7D
1506233269.38,5354,13.56,73858.5,0.43,-0.33,-0.41,0,*78
1506233270.57,5355,13.56,73862.5,0.41,-0.33,-0.33,0,*7E
1506233271.74,5356,13.56,73858.0,0.43,-0.33,-0.41,0,*7A
1506233272.9,5357,13.56,73856.8,0.43,-0.33,-0.33,0,*7E
1506233274.09,5358,13.56,73862.8,0.41,-0.33,-0.33,0,*73
1506233275.25,5359,13.56,73856.3,0.43,-0.33,-0.41,0,*75
1506233276.44,5360,13.56,73856.0,0.41,-0.33,-0.41,0,*7D
1506233277.62,5361,13.56,73860.3,0.43,-0.41,-0.41,0,*7B
1506233278.79,5362,13.56,73860.0,0.43,-0.41,-0.41,0,*78
1506233279.97,5363,13.56,73860.5,0.43,-0.41,-0.41,0,*79
1506233281.13,5364,13.56,73856.8,0.43,-0.41,-0.33,0,*7B
1506233282.3,5365,13.56,73862.3,0.43,-0.33,-0.41,0,*7A
1506233283.5,5366,13.56,73860.3,0.41,-0.41,-0.33,0,*7B
1506233284.67,5367,13.56,73858.5,0.43,-0.41,-0.41,0,*7D
1506233285.84,5368,13.56,73860.8,0.43,-0.41,-0.41,0,*72
1506233287.04,5369,13.56,73862.3,0.41,-0.41,-0.41,0,*71
1506233288.24,5370,13.56,73864.0,0.41,-0.41,-0.41,0,*79
1506233289.42,5371,13.56,73860.5,0.41,-0.33,-0.33,0,*78
1506233290.6,5372,13.56,73862.8,0.43,-0.41,-0.41,0,*79
1506233291.77,5373,13.56,73860.5,0.43,-0.41,-0.33,0,*7D
1506233292.93,5374,13.56,73866.0,0.43,-0.33,-0.41,0,*7A
1506233294.1,5375,13.56,73862.3,0.43,-0.45,-0.41,0,*7A
1506233295.3,5376,13.56,73860.3,0.41,-0.45,-0.41,0,*7B
1506233296.49,5377,13.56,73860.0,0.41,-0.41,-0.41,0,*7E
1506233297.67,5378,13.56,73860.3,0.43,-0.41,-0.41,0,*73
1506233298.83,5379,13.56,73864.3,0.43,-0.45,-0.45,0,*72
1506233300.0,5380,13.56,73860.5,0.43,-0.41,-0.53,0,*77
1506233301.19,5381,13.56,73860.3,0.41,-0.41,-0.41,0,*77
1506233302.39,5382,13.56,73862.3,0.41,-0.41,-0.33,0,*71
1506233303.56,5383,13.56,73858.5,0.43,-0.45,-0.41,0,*73
1506233304.72,5384,13.56,73860.0,0.43,-0.41,-0.45,0,*74
1506233305.92,5385,13.56,73860.5,0.41,-0.41,-0.45,0,*77
1506233307.1,5386,13.56,73860.3,0.41,-0.45,-0.45,0,*70
1506233308.29,5387,13.56,73856.8,0.41,-0.41,-0.45,0,*75